CVBQ Weather Reports


time (UTC)temp
C
wind
direction
speed
KPH
gust
KPH
rain 1hr
cm
rain 24hr
cm
rain mn
cm
humidity
%
barometer
mb
20260507073108 8 232 0.0 0.0 0.00 0.00 0.00 98 1014.5
20260507071559 8 232 0.0 1.6 0.00 0.00 0.00 98 1014.9
20260507070107 7 91 0.0 0.0 0.00 0.00 0.00 97 1014.9
20260507064559 7 91 0.0 0.0 0.00 0.00 0.00 97 1014.9
20260507063058 7 91 0.0 1.6 0.00 0.00 0.00 96 1015.1
20260507061555 7 250 0.0 0.0 0.00 0.00 0.00 98 1015.0
20260507060054 7 249 0.0 0.0 0.00 0.00 0.00 97 1015.1
20260507054553 6 249 0.0 0.0 0.00 0.00 0.00 96 1014.8
20260507053052 7 249 0.0 0.0 0.00 0.00 0.00 97 1014.7
20260507051559 7 249 0.0 0.0 0.00 0.00 0.00 96 1014.6
20260507050104 7 249 0.0 0.0 0.00 0.00 0.00 96 1014.7
20260507044553 7 249 0.0 0.0 0.00 0.00 0.00 96 1014.6
20260507043047 7 249 0.0 0.0 0.00 0.00 0.00 96 1014.6
20260507041547 7 249 0.0 0.0 0.00 0.00 0.00 96 1014.6
20260507040048 7 249 0.0 0.0 0.00 0.00 0.00 96 1014.7
20260507034543 7 249 0.0 0.0 0.00 0.00 0.00 96 1014.8
20260507033046 7 249 0.0 0.0 0.00 0.00 0.00 96 1014.9
20260507031541 7 249 0.0 0.0 0.00 0.00 0.00 95 1014.9
20260507030039 7 249 0.0 0.0 0.00 0.00 0.00 95 1015.0
20260507024543 8 249 0.0 0.0 0.00 0.00 0.00 96 1014.9
20260507023038 7 249 0.0 0.0 0.00 0.00 0.00 94 1014.9
20260507021547 8 249 0.0 0.0 0.00 0.00 0.00 95 1015.0
20260507020034 8 249 0.0 0.0 0.00 0.00 0.00 94 1015.1
20260507014530 8 249 0.0 0.0 0.00 0.00 0.00 94 1015.1
20260507013034 8 249 0.0 0.0 0.00 0.00 0.00 94 1015.3
20260507011532 8 249 0.0 0.0 0.00 0.00 0.00 94 1015.4
20260507010037 8 249 0.0 0.0 0.00 0.00 0.00 94 1015.4
20260507004524 8 249 0.0 1.6 0.00 0.00 0.00 94 1015.5
20260507003023 8 249 0.0 0.0 0.00 0.00 0.00 93 1015.5
20260507001521 8 249 0.0 0.0 0.00 0.00 0.00 92 1015.6
20260507000019 8 249 0.0 0.0 0.00 0.00 0.00 91 1015.6
20260506230057 9 246 0.0 0.0 0.00 0.00 0.00 88 1015.6
20260506224554 10 246 0.0 0.0 0.00 0.00 0.00 87 1015.7
20260506223059 10 246 0.0 3.2 0.00 0.00 0.00 86 1015.8
20260506221555 11 259 0.0 4.8 0.00 0.00 0.00 84 1016.0
20260506220052 10 257 0.0 3.2 0.00 0.00 0.00 85 1016.1
20260506214552 11 231 0.0 1.6 0.00 0.00 0.00 85 1016.2
20260506213051 11 244 0.0 1.6 0.00 0.00 0.00 85 1016.2
20260506211551 11 245 0.0 0.0 0.00 0.00 0.00 86 1016.2
20260506210050 11 244 0.0 1.6 0.00 0.00 0.00 84 1016.0
20260506204557 12 248 0.0 0.0 0.00 0.00 0.00 81 1016.1
20260506203050 13 248 0.0 0.0 0.00 0.00 0.00 76 1015.9
20260506201550 14 248 0.0 1.6 0.00 0.00 0.00 73 1015.9
20260506200106 15 248 0.0 8.0 0.00 0.00 0.00 72 1015.8
20260506194555 15 248 3.2 8.0 0.00 0.00 0.00 71 1015.7
20260506193047 15 253 0.0 4.8 0.00 0.00 0.00 70 1015.7
20260506191546 15 244 0.0 6.4 0.00 0.00 0.00 69 1015.4
20260506190045 16 225 0.0 9.7 0.00 0.00 0.00 68 1015.2
20260506184544 16 250 4.8 11.3 0.00 0.00 0.00 66 1015.1
20260506183058 16 256 3.2 6.4 0.00 0.00 0.00 66 1015.4
20260506181549 16 250 4.8 11.3 0.00 0.00 0.00 63 1015.3
20260506180043 17 246 8.0 12.9 0.00 0.00 0.00 60 1015.3
20260506174540 18 241 3.2 12.9 0.00 0.00 0.00 61 1015.3
20260506173040 18 261 4.8 12.9 0.00 0.00 0.00 60 1015.4
20260506171544 18 223 4.8 14.5 0.00 0.00 0.00 60 1015.5
20260506170043 18 248 4.8 12.9 0.00 0.00 0.00 59 1015.6
20260506164545 18 252 4.8 14.5 0.00 0.00 0.00 60 1015.6
20260506163036 18 253 4.8 12.9 0.00 0.00 0.00 60 1015.6
20260506161539 18 251 6.4 19.3 0.00 0.00 0.00 59 1015.6
20260506160042 18 293 9.7 20.9 0.00 0.00 0.00 59 1015.7
20260506154532 19 226 9.7 19.3 0.00 0.00 0.00 57 1015.7
20260506153031 20 296 8.0 14.5 0.00 0.00 0.00 51 1015.6
20260506151535 20 252 1.6 11.3 0.00 0.00 0.00 43 1015.8
20260506150031 20 259 1.6 9.7 0.00 0.00 0.00 46 1016.1
20260506144525 20 80 1.6 9.7 0.00 0.00 0.00 43 1016.4
20260506143038 20 229 1.6 11.3 0.00 0.00 0.00 42 1016.5
20260506141521 20 262 1.6 11.3 0.00 0.00 0.00 43 1016.7
20260506140018 20 82 0.0 8.0 0.00 0.00 0.00 43 1017.1
20260506134516 21 266 0.0 4.8 0.00 0.00 0.00 49 1017.2
20260506133012 20 91 1.6 3.2 0.00 0.00 0.00 49 1017.3
20260506131515 19 352 0.0 4.8 0.00 0.00 0.00 45 1017.6
20260506130007 18 70 3.2 8.0 0.00 0.00 0.00 51 1017.7
20260506124503 19 78 0.0 4.8 0.00 0.00 0.00 54 1017.8
20260506123001 18 265 0.0 8.0 0.00 0.00 0.00 56 1018.0
20260506121603 18 358 1.6 4.8 0.00 0.00 0.00 56 1018.2
20260506120100 18 321 0.0 11.3 0.00 0.03 0.00 53 1018.4
20260506114555 18 134 6.4 11.3 0.00 0.03 0.00 51 1018.6
20260506113101 18 121 3.2 6.4 0.00 0.03 0.00 49 1018.8
20260506111551 18 333 0.0 11.3 0.00 0.03 0.00 57 1018.9
20260506110053 17 231 1.6 4.8 0.00 0.03 0.00 59 1019.2
20260506104543 16 57 1.6 6.4 0.00 0.03 0.00 67 1019.2
20260506103047 16 103 0.0 6.4 0.00 0.03 0.00 67 1019.2
20260506101553 16 105 0.0 3.2 0.00 0.03 0.00 69 1019.3
20260506100036 15 323 1.6 4.8 0.00 0.03 0.00 69 1019.4
20260506094536 15 255 0.0 6.4 0.00 0.03 0.00 74 1019.4
20260506093031 14 338 0.0 4.8 0.00 0.03 0.00 80 1019.5
20260506091529 12 169 0.0 3.2 0.00 0.03 0.00 85 1019.8
20260506090024 12 146 0.0 3.2 0.00 0.03 0.00 88 1019.9
20260506084527 11 167 0.0 4.8 0.00 0.03 0.00 90 1019.8
20260506083020 11 165 0.0 3.2 0.00 0.03 0.00 96 1019.8
20260506081519 10 150 0.0 1.6 0.00 0.03 0.00 96 1019.9